Regional Weather Roundup
Issued by NWS

Home | Current Version | Previous Version | Graphics & Text | Print | Product List | Glossary On
Versions: 1 2 3 4 5 6 7 8 9 10 11 12 13 14 15 16 17 18 19 20 21 22 23 24 25 26 27
000
ASUS45 KCYS 192110
RWRWY

WYOMING REGIONAL WEATHER ROUNDUP
NATIONAL WEATHER SERVICE CHEYENNE WY
300 PM MDT WED JUL 19 2017

NOTE:  "FAIR" INDICATES FEW OR NO CLOUDS BELOW 12,000 FEET
WITH NO SIGNIFICANT WEATHER AND/OR OBSTRUCTIONS TO VISIBILITY.

WYZ001-192200-
YELLOWSTONE NATIONAL PARK

CITY           SKY/WX    TMP DP  RH WIND       PRES   REMARKS
LK YELLOWSTONE   N/A     77  26  15 VRB7      30.35R
W YELLOWSTONE  NOT AVBL

$$
WYZ002>013-054>058-071-098>099-192200-
NORTHERN WYOMING

CITY           SKY/WX    TMP DP  RH WIND       PRES   REMARKS
JACKSON        SUNNY     84  34  16 SW6       30.22F
CODY           FAIR      82  46  28 VRB6      30.13F
GREYBULL       FAIR      96  30   9 VRB6      30.00F HX  90
WORLAND        FAIR      93  40  15 N8        30.02F
SHERIDAN       FAIR      90  46  21 NW7       30.08F
BUFFALO        FAIR      85  44  23 N14       30.16F
GILLETTE       FAIR      91  51  25 N15       30.09S
HULETT         FAIR      88  50  27 NE6G20    30.09S
NEWCASTLE      FAIR      93  43  17 N15G22    30.03S

$$
WYZ014>020-022>026-101>103-192200-
CENTRAL WYOMING

CITY           SKY/WX    TMP DP  RH WIND       PRES   REMARKS
BIG PINEY      FAIR      86  47  25 S8        30.26F
PINEDALE       MOCLDY    81  43  26 CALM      30.29S
DUBOIS         FAIR      82  36  18 W9G26     30.26S
LANDER         NOT AVBL
RIVERTON       FAIR      88  42  20 VRB3      30.11F
CASPER         FAIR      91  41  17 VRB3      30.12F
DOUGLAS        FAIR      96  41  15 N22G33    30.08S HX  92

$$
WYZ021-027>030-104>119-192200-
SOUTHERN WYOMING

CITY           SKY/WX    TMP DP  RH WIND       PRES   REMARKS
EVANSTON       CLOUDY    77  54  44 W14       30.29F
KEMMERER         N/A     81  45  28 W14       30.30F
FORT BRIDGER   FAIR      88  45  22 W14G25    30.31F
ROCK SPRINGS   FAIR      91  40  16 NW15G21   30.23F
RAWLINS        PTSUNNY   90  41  18 W13       30.23F
SARATOGA       FAIR      90  39  17 W17G23    30.26F
LARAMIE        FAIR      87  37  17 VRB3      30.26F
CHEYENNE       FAIR      97  38  13 NE9G21    30.16F HX  92
TORRINGTON     FAIR     103  31   8 VRB7G21   29.98F HX  96
PINE BLUFFS    FAIR      97  41  14 E3        30.08F HX  92

$$




USA.gov is the U.S. government's official web portal to all federal, state and local government web resources and services.